Location: Newark
(25.1987°N, 100.3705°W)
Time: 07:43:20
(UTC+00:00)

X-37B - Pass Details

Date: 11 August 2021
Orbit: 381 x 393 km, 45.0° (Epoch: 29 August)

Event Time Altitude Azimuth Distance (km) Brightness Sun altitude
Rises 11:11:08 0° 332° (NNW) 2,245 4.4 -14.0°
Reaches altitude 10° 11:14:19 10° 7° (N) 1,391 3.8 -13.4°
Maximum altitude 11:15:29 12° 29° (NNE) 1,299 4.0 -13.1°
Drops below altitude 10° 11:16:40 10° 52° (NE) 1,391 4.7 -12.9°
Sets 11:19:51 0° 87° (E) 2,242 5.9 -12.2°
